User: anonymous   Login
Location: Cactus School
(34.5700°N, 118.0931°W)
Time: 02:17:21
(UTC-07:00)
Language:

SRMSAT - Orbit

View from above orbital plane
View from above orbital plane
View from above satellite
View from above satellite

Ground track
Ground track

The orbit data is extracted from the following two-line orbital elements,

1 37841U 11058D   24146.63730510  .00000608  00000-0  18754-3 0  9992
2 37841  19.9729 293.1743 0011730 206.5578 247.7737 14.11114805651371
Epoch (UTC): 25 May 2024 15:17:43
Eccentricity: 0.0011730
inclination: 19.9729°
perigee height: 847 km
apogee height: 864 km
right ascension of ascending node: 293.1743°
argument of perigee: 206.5578°
revolutions per day: 14.11114805
mean anomaly at epoch: 247.7737°
orbit number at epoch: 65137

The dashed part of the orbit path shows where the satellite is in the earth's shadow,  

DLR